[[{"header":{"parameterUnit":"m.s-1","parameterCategory":1,"la1":30.2992,"la2":30.254,"lo1":-89.0895,"lo2":-89.0443,"dy":0.0025,"dx":0.0025,"nx":19,"ny":19,"refTime":"2026-04-26T09:00:00:Z","depth":0,"parameterNumber":2,"parameterNumberName":"U-component_of_WINDS"},"data":[0,0,0,1.363,1.3632,1.376,1.376,1.3915,1.3917,0,0,0,0,0,0,0,0,0,0,0,1.3586,1.3587,1.363,1.3633,1.376,1.376,1.3915,1.3917,0,0,0,0,0,0,0,0,0,0,0,1.3585,1.3586,1.3587,1.3633,1.376,1.3761,1.3915,1.3822,0,0,0,0,0,0,0,0,0,0,1.37,1.3653,1.3586,1.3587,1.3634,1.376,1.3761,1.3818,1.3828,1.3854,0,1.3874,0,1.3897,1.3926,1.3927,0,0,0,1.3638,1.3644,1.3684,1.3588,1.3635,1.3759,1.3704,1.3823,1.3835,1.3867,1.3876,1.3882,1.39,1.3927,1.3928,1.4056,1.4056,0,0,1.3631,1.3606,1.3676,1.3691,1.3669,1.37,1.3708,1.383,1.3839,1.3877,1.3886,1.3903,1.3928,1.3929,1.4055,1.4056,0,0,0,1.3607,1.3601,1.3638,1.3684,1.3708,1.3703,1.3713,1.3834,1.3848,1.3888,1.3904,1.3929,1.3931,1.4055,1.4055,1.4046,0,0,0,1.3603,1.3587,1.3634,1.362,1.3705,1.3772,1.3713,1.3839,1.3854,1.3904,1.3929,1.3932,1.4055,1.4055,1.4046,1.4046,0,0,0,1.358,1.3584,1.36,1.3619,1.3672,1.3771,1.3792,1.3843,1.3864,1.3927,1.3933,1.4054,1.4055,1.4045,1.4046,1.4071,0,0,0,1.3548,1.3592,1.36,1.3656,1.3671,1.3764,1.3791,1.3863,1.3915,1.393,1.4055,1.4055,1.4045,1.4045,1.407,1.4087,1.4092,0,0,1.3589,1.3596,1.3631,1.3642,1.3726,1.3746,1.3831,1.3904,1.3935,1.4014,1.4017,1.4046,1.4045,1.4071,1.413,1.4133,0,0,0,1.3636,1.366,1.3688,1.3736,1.3792,1.384,1.3903,1.393,1.3999,1.397,1.4064,1.4064,1.408,1.4089,1.4092,1.4107,1.4059,1.4059,1.4059,1.3658,1.3692,1.3752,1.3802,1.3849,1.3912,1.3954,1.4001,1.4025,1.4046,1.4069,1.4101,1.411,1.4113,1.4128,1.4082,1.4082,1.4082,1.4082,1.3721,1.3761,1.3788,1.3856,1.3893,1.3951,1.4015,1.4029,1.4089,1.4086,1.4102,1.4095,1.4115,1.4131,1.4082,1.4082,1.4082,1.4082,1.4082,1.3738,1.3763,1.3794,1.3867,1.3919,1.3969,1.4024,1.4057,1.4088,1.4104,1.4132,1.4132,1.4135,1.4115,1.4115,1.4115,1.4115,1.4116,1.4116,1.3743,1.3779,1.382,1.3883,1.3917,1.3967,1.4032,1.4067,1.4115,1.4135,1.4135,1.4155,1.4111,1.4098,1.4117,1.4117,1.4117,1.4117,1.4117,1.3792,1.3786,1.385,1.3884,1.396,1.4009,1.405,1.412,1.4154,1.418,1.4198,1.416,1.4169,1.4167,1.4157,1.419,1.419,1.419,1.419,1.3805,1.3813,1.3885,1.3938,1.3994,1.4037,1.4109,1.416,1.4212,1.4236,1.4236,1.4226,1.4222,1.4234,1.423,1.4221,1.427,1.427,1.427,1.3837,1.3851,1.3905,1.3954,1.4016,1.4068,1.4137,1.4197,1.4256,1.4274,1.4255,1.4251,1.4235,1.4228,1.4245,1.4238,1.4222,0,0]},{"header":{"parameterUnit":"m.s-1","parameterCategory":1,"la1":30.2992,"la2":30.254,"lo1":-89.0895,"lo2":-89.0443,"dy":0.0025,"dx":0.0025,"nx":19,"ny":19,"refTime":"2026-04-26T09:00:00:Z","depth":0,"parameterNumber":3,"parameterNumberName":"V-component_of_WINDS"},"data":[0,0,0,1.2501,1.2502,1.2552,1.2552,1.2614,1.2614,0,0,0,0,0,0,0,0,0,0,0,1.2485,1.2486,1.25,1.2502,1.2552,1.2552,1.2614,1.2614,0,0,0,0,0,0,0,0,0,0,0,1.2485,1.2485,1.2486,1.2502,1.2552,1.2552,1.2613,1.2576,0,0,0,0,0,0,0,0,0,0,1.2528,1.2513,1.2485,1.2486,1.2502,1.2552,1.2552,1.2574,1.2579,1.259,0,1.2601,0,1.2609,1.2618,1.2618,0,0,0,1.2502,1.251,1.2524,1.2486,1.2503,1.2552,1.2529,1.2577,1.2581,1.2595,1.2602,1.2604,1.261,1.2619,1.2619,1.2688,1.2688,0,0,1.2499,1.2494,1.2521,1.2527,1.252,1.2528,1.2531,1.258,1.2586,1.2602,1.2606,1.2611,1.2619,1.262,1.2687,1.2688,0,0,0,1.2491,1.2492,1.2505,1.2524,1.2534,1.2529,1.2533,1.2584,1.2589,1.2607,1.2612,1.2619,1.262,1.2687,1.2688,1.2699,0,0,0,1.2489,1.2487,1.2503,1.2501,1.2533,1.256,1.2536,1.2585,1.2591,1.2611,1.2619,1.2621,1.2687,1.2687,1.2698,1.2705,0,0,0,1.2482,1.2486,1.2493,1.25,1.2522,1.2559,1.2567,1.2587,1.2594,1.2619,1.2621,1.2687,1.2687,1.2697,1.2704,1.2723,0,0,0,1.2472,1.2502,1.2493,1.2528,1.2521,1.2566,1.2566,1.2599,1.2622,1.262,1.2687,1.2687,1.2697,1.2703,1.2722,1.2738,1.2745,0,0,1.2507,1.2506,1.2527,1.2521,1.2566,1.2559,1.2605,1.263,1.2636,1.267,1.2672,1.2698,1.2704,1.2723,1.278,1.2785,0,0,0,1.2536,1.2551,1.2564,1.2586,1.2606,1.2624,1.2643,1.2652,1.2681,1.2653,1.271,1.2713,1.2724,1.2733,1.2737,1.2747,1.2691,1.2691,1.2691,1.2577,1.2585,1.262,1.2634,1.2654,1.2674,1.2691,1.2706,1.2707,1.272,1.2731,1.2765,1.2774,1.2777,1.2788,1.2739,1.2739,1.2739,1.2739,1.2629,1.2652,1.2653,1.2687,1.2695,1.2723,1.2742,1.2742,1.2769,1.2757,1.2767,1.2755,1.2782,1.2792,1.274,1.274,1.274,1.274,1.274,1.2658,1.267,1.2681,1.2714,1.2737,1.2749,1.2776,1.2781,1.2786,1.2796,1.2808,1.2808,1.2809,1.2801,1.2801,1.2801,1.2801,1.2801,1.2801,1.2684,1.2696,1.2718,1.2743,1.2757,1.2777,1.2796,1.281,1.2827,1.2829,1.2829,1.2829,1.2784,1.2773,1.2803,1.2803,1.2803,1.2803,1.2802,1.2735,1.2725,1.2759,1.2774,1.2803,1.2826,1.2832,1.2861,1.2873,1.2886,1.2883,1.2849,1.2848,1.2845,1.2836,1.2881,1.2881,1.2881,1.2881,1.2761,1.2761,1.2798,1.2821,1.2844,1.2853,1.2892,1.2906,1.2919,1.2927,1.2921,1.2909,1.2905,1.2907,1.2902,1.2894,1.2953,1.2953,1.2953,1.2793,1.2796,1.2828,1.2842,1.2865,1.2884,1.292,1.2946,1.2958,1.2956,1.2933,1.293,1.2912,1.2905,1.2904,1.2897,1.2882,0,0]}]]